x

Milford Haven C.b. (03604) Weather Station

9:00pm - Wed 10th Feb 2016 All times are GMT.

  • Wind
    1mph
  • Air Temp 40°f
  • Sea Pressure 1004mb
  • Milford Haven C.b.
  • Milford Haven C.b.

More Historic Weather Station data

Upgrade to MSW Pro to gain access to the past 30 days of data for over 8000 Wavebouys and Weather Stations around the globe.

Join Pro

Comparision Forecast

View Surf forecast
   
Wed 02/10 9:00pm 1
mph
1004mb 40f
8:00pm 2
mph
1003mb 39f
7:00pm 5
mph
1003mb 39f
6:00pm 6
mph
1003mb 40f
5:00pm 6
mph
1002mb 43f
4:00pm 9
mph
1002mb 44f
3:00pm 10
mph
1001mb 47f
2:00pm 11
mph
1001mb 47f
12:00pm 10
mph
1000mb 46f
9:00am 10
mph
998mb 42f
5:00am 16 33 mph 996mb 42f
4:00am 15 30 mph 995mb 42f
3:00am 16 34 mph 995mb 42f
2:00am 17 39 mph 995mb 42f
1:00am 23 45 mph 994mb 42f
12:00am 21 45 mph 993mb 42f
Tue 02/09 11:00pm 23 41 mph 993mb 41f
10:00pm 26 45 mph 992mb 43f
9:00pm 24 44 mph 991mb 43f
8:00pm 25 46 mph 990mb 44f
7:00pm 24 52 mph 989mb 42f
6:00pm 23 41 mph 989mb 40f
4:00pm 22 40 mph 988mb 42f
3:00pm 22 40 mph 987mb 43f
2:00pm 22 40 mph 987mb 44f
1:00pm 18 33 mph 987mb 44f
12:00pm 15 30 mph 987mb 46f
11:00am 15 34 mph 987mb 46f
10:00am 11
mph
986mb 44f
8:00am 10
mph
987mb 41f
7:00am 11
mph
987mb 41f
6:00am 11
mph
988mb 42f
5:00am 15
mph
988mb 42f
4:00am 17 37 mph 989mb 41f
3:00am 22 37 mph 990mb 44f
2:00am 22 37 mph 991mb 44f
1:00am 21 39 mph 992mb 45f
Mon 02/08 11:00pm 25 41 mph 993mb 45f
10:00pm 25 45 mph 993mb 45f
9:00pm 26 44 mph 993mb 45f
8:00pm 29 48 mph 993mb 46f
7:00pm 32 47 mph 993mb 46f
6:00pm 34 49 mph 992mb 46f
4:00pm 38 56 mph 990mb 47f
3:00pm 39 62 mph 988mb 47f
2:00pm 33 59 mph 987mb 48f
1:00pm 40 72 mph 984mb 48f
12:00pm 46 75 mph 983mb 47f
11:00am 46 64 mph 982mb 47f
10:00am 46 75 mph 980mb 47f
9:00am 45 64 mph 979mb 48f
8:00am 43 67 mph 978mb 48f
7:00am 41 68 mph 978mb 47f
6:00am 40 62 mph 978mb 46f
5:00am 43 63 mph 978mb 47f
4:00am 38 66 mph 979mb 46f
3:00am 32 66 mph 980mb 44f
2:00am 29 64 mph 980mb 44f
1:00am 33 53 mph 981mb 45f
12:00am 34 56 mph 981mb 44f
Sun 02/07 11:00pm 33 51 mph 981mb 47f
10:00pm 31 53 mph 981mb 48f
9:00pm 30 47 mph 981mb 49f
8:00pm 30 60 mph 981mb 47f
7:00pm 17 47 mph 982mb 49f
6:00pm 21 47 mph 983mb 50f
5:00pm 34 49 mph 984mb 47f
4:00pm 26 41 mph 987mb 46f
3:00pm 21 39 mph 989mb 45f
2:00pm 17 31 mph 991mb 45f
1:00pm 18 36 mph 992mb 46f
12:00pm 23 36 mph 991mb 47f
10:00am 19 34 mph 991mb 46f
9:00am 22 40 mph 991mb 45f
8:00am 22 40 mph 990mb 44f
7:00am 24 47 mph 988mb 44f
6:00am 29 43 mph 987mb 44f
5:00am 26 41 mph 986mb 44f
4:00am 23 54 mph 986mb 44f
3:00am 13
mph
986mb 43f
2:00am 15 36 mph 986mb 42f
1:00am 18 43 mph 986mb 43f
12:00am 24 36 mph 985mb 45f
Sat 02/06 11:00pm 18 38 mph 985mb 45f